Location: Sobotiste
(48.7170°N, 17.4000°E)
Time: 23:01:41
(UTC+01:00)

Tiangong - Visible Passes

Search period start: 17 January 2026 00:00
Search period end: 27 January 2026 00:00
Orbit: 378 x 394 km, 41.5° (Epoch: 17 January)

Date Brightness Start Highest point End Pass type
(mag) Time Alt. Az. Time Alt. Az. Time Alt. Az.
18 Jan 0.9 06:14:45 10° S 06:16:09 12° SSE 06:17:33 10° SE visible
19 Jan 0.4 06:50:51 10° SW 06:53:15 19° S 06:55:39 10° ESE visible
20 Jan 0.5 05:52:02 10° SSW 05:54:07 16° SSE 05:56:12 10° ESE visible
21 Jan 0.9 04:55:33 12° SSE 04:55:33 12° SSE 04:56:26 10° SE visible
21 Jan 0.0 06:28:39 10° SW 06:31:11 22° S 06:33:44 10° ESE visible
22 Jan 0.0 05:31:19 18° S 05:31:58 20° S 05:34:22 10° ESE visible
23 Jan 1.3 04:34:45 10° SE 04:34:45 10° SE 04:34:49 10° ESE visible
23 Jan -0.1 06:06:59 13° SW 06:09:00 22° S 06:11:33 10° SE visible
24 Jan 0.1 05:10:21 20° SSE 05:10:21 20° SSE 05:12:13 10° ESE visible
24 Jan 0.2 06:43:45 10° WSW 06:45:58 18° SSW 06:48:11 10° SSE visible
25 Jan -0.2 05:45:52 19° SSW 05:46:39 20° S 05:49:06 10° SE visible
26 Jan 0.8 04:49:08 14° SE 04:49:08 14° SE 04:49:48 10° SE visible
26 Jan 0.3 06:21:47 10° SW 06:23:30 14° SSW 06:25:12 10° SSE visible
